GW1022 Weather Reports


time (UTC)temp
C
wind
direction
speed
KPH
gust
KPH
rain 1hr
cm
rain 24hr
cm
rain mn
cm
humidity
%
barometer
mb
20260503193006 25 229 0.0 3.2 0.00 0.00 0.00 49 1013.5
20260503191521 24 83 3.2 6.4 0.00 0.00 0.00 46 1013.7
20260503190008 25 200 0.0 3.2 0.00 0.00 0.00 43 1013.8
20260503184521 25 172 0.0 0.0 0.00 0.00 0.00 48 1014.0
20260503183022 24 214 0.0 3.2 0.00 0.00 0.00 51 1014.2
20260503181521 23 203 0.0 3.2 0.00 0.00 0.00 52 1014.2
20260503180008 23 192 0.0 1.6 0.00 0.00 0.00 52 1014.2
20260503174519 23 205 0.0 1.6 0.00 0.00 0.00 52 1014.2
20260503173005 23 151 0.0 3.2 0.00 0.00 0.00 51 1014.4
20260503171536 22 217 0.0 1.6 0.00 0.00 0.00 52 1014.4
20260503081505 11 123 0.0 0.0 0.00 0.00 0.00 91 1015.2
20260503071510 12 123 0.0 0.0 0.00 0.00 0.00 89 1015.2
20260503054519 13 203 0.0 0.0 0.00 0.00 0.00 86 1015.0
20260503053018 14 203 0.0 0.0 0.00 0.00 0.00 85 1015.0
20260503051513 15 203 0.0 0.0 0.00 0.00 0.00 83 1014.9
20260503050025 15 203 0.0 0.0 0.00 0.00 0.00 81 1014.8
20260503044537 15 203 0.0 0.0 0.00 0.00 0.00 79 1014.8
20260503043023 16 203 0.0 0.0 0.00 0.00 0.00 78 1014.7
20260503041540 16 203 0.0 0.0 0.00 0.00 0.00 76 1014.5
20260503040012 17 203 0.0 0.0 0.00 0.00 0.00 73 1014.2
20260503034537 18 203 0.0 0.0 0.00 0.00 0.00 69 1013.9
20260503033051 18 203 0.0 0.0 0.00 0.00 0.00 68 1013.7
20260503031611 20 203 0.0 0.0 0.00 0.00 0.00 65 1013.5
20260503030017 20 203 0.0 0.0 0.00 0.00 0.00 62 1013.4
20260503024511 21 203 0.0 0.0 0.00 0.00 0.00 58 1013.4
20260503023026 21 203 0.0 0.0 0.00 0.00 0.00 57 1013.2
20260503021539 22 203 0.0 0.0 0.00 0.00 0.00 57 1013.2
20260503020055 22 203 0.0 0.0 0.00 0.00 0.00 57 1013.2
20260503014554 22 203 0.0 0.0 0.00 0.00 0.00 56 1013.1
20260503013053 22 203 0.0 0.0 0.00 0.00 0.00 57 1013.1
20260503011608 22 203 0.0 0.0 0.00 0.00 0.00 57 1013.2
20260503010002 23 203 0.0 1.6 0.00 0.00 0.00 57 1013.4
20260503004514 23 274 0.0 1.6 0.00 0.00 0.00 57 1013.5
20260503003023 23 113 0.0 1.6 0.00 0.00 0.00 57 1013.6
20260503001523 23 155 0.0 0.0 0.00 0.00 0.00 55 1013.6
20260503000049 23 38 0.0 1.6 0.00 0.00 0.00 56 1013.7
20260502234535 23 78 0.0 6.4 0.00 0.00 0.00 56 1013.7
20260502233045 23 89 0.0 1.6 0.00 0.00 0.00 54 1014.0
20260502231614 23 48 0.0 6.4 0.00 0.00 0.00 55 1014.2
20260502230058 23 122 0.0 1.6 0.00 0.00 0.00 56 1014.5
20260502224506 22 295 0.0 1.6 0.00 0.00 0.00 56 1014.7
20260502223023 23 117 0.0 3.2 0.00 0.00 0.00 56 1014.8
20260502221529 22 153 0.0 6.4 0.00 0.00 0.00 57 1015.0
20260502220017 22 115 1.6 6.4 0.00 0.00 0.00 57 1015.2
20260502214524 22 193 0.0 1.6 0.00 0.00 0.00 55 1015.3
20260502213035 22 186 0.0 3.2 0.00 0.00 0.00 57 1015.4
20260502211537 22 157 0.0 3.2 0.00 0.00 0.00 59 1015.5
20260502210036 21 226 0.0 9.7 0.00 0.00 0.00 60 1015.6
20260502204537 21 161 0.0 4.8 0.00 0.00 0.00 63 1015.8
20260502203046 20 206 0.0 4.8 0.00 0.00 0.00 63 1015.9
20260502201537 20 75 1.6 4.8 0.00 0.00 0.00 62 1016.0
20260502200037 18 236 0.0 3.2 0.00 0.00 0.00 65 1016.2
20260502194540 19 262 1.6 6.4 0.00 0.00 0.00 63 1016.4